GFSCGP_500_temp_336.txt.gz
Temp
-21 -22 -21 -19 -19 -18 -18 -18 -18 -17 -17 -18 -17 -15 -15 -15 -16 -15 -16 -15 -14 -14 -14 -14 -14 -14 -13 -13 -13 -13 -13 -13 -12 -12 -12 -12 -12 -12 -12 -12 -12 -13 -13 -13
-23 -23 -21 -20 -20 -20 -20 -20 -18 -18 -18 -18 -17 -16 -16 -16 -16 -16 -15 -16 -15 -14 -15 -14 -14 -14 -14 -14 -13 -13 -13 -13 -13 -13 -13 -13 -13 -13 -13 -13 -13 -13 -13 -13
-23 -23 -22 -22 -22 -22 -21 -19 -18 -19 -19 -19 -18 -17 -16 -16 -16 -16 -16 -15 -16 -15 -14 -15 -15 -15 -15 -14 -14 -14 -14 -13 -13 -13 -13 -13 -13 -13 -13 -13 -13 -13 -13 -13
-24 -23 -24 -23 -22 -23 -22 -21 -19 -21 -21 -20 -20 -18 -17 -16 -17 -17 -15 -15 -15 -16 -15 -15 -15 -15 -16 -16 -15 -14 -14 -14 -14 -14 -13 -14 -14 -13 -14 -13 -13 -13 -14 -13
-24 -24 -25 -24 -22 -23 -23 -22 -23 -22 -23 -22 -22 -21 -16 -17 -16 -16 -15 -15 -16 -16 -16 -15 -16 -16 -16 -16 -16 -15 -14 -14 -14 -14 -14 -14 -14 -14 -14 -14 -14 -14 -14 -14
-25 -25 -24 -24 -24 -25 -24 -24 -24 -23 -23 -23 -21 -21 -17 -18 -16 -16 -16 -16 -17 -16 -17 -17 -16 -16 -16 -16 -16 -15 -15 -15 -15 -15 -15 -15 -14 -14 -14 -14 -14 -14 -14 -14
-26 -25 -25 -24 -24 -24 -24 -24 -24 -24 -24 -24 -22 -23 -18 -17 -17 -16 -16 -17 -17 -17 -17 -17 -17 -16 -16 -16 -16 -16 -16 -16 -15 -15 -15 -15 -14 -14 -14 -14 -14 -15 -15 -15
-27 -26 -25 -24 -23 -24 -24 -24 -24 -24 -24 -23 -23 -24 -19 -18 -18 -18 -17 -17 -17 -17 -18 -18 -17 -17 -16 -16 -16 -16 -16 -16 -16 -15 -15 -15 -15 -15 -15 -15 -15 -15 -15 -15
-27 -26 -26 -25 -24 -24 -24 -24 -24 -24 -24 -24 -24 -23 -22 -20 -20 -19 -18 -18 -17 -17 -17 -18 -18 -18 -18 -17 -17 -16 -16 -16 -16 -16 -16 -16 -15 -15 -15 -15 -15 -15 -15 -16
-27 -26 -26 -25 -25 -25 -24 -24 -24 -24 -24 -24 -23 -23 -23 -20 -20 -20 -20 -19 -18 -18 -18 -17 -17 -18 -18 -18 -18 -18 -17 -16 -16 -16 -16 -16 -15 -15 -15 -15 -15 -15 -16 -16
-27 -26 -26 -25 -25 -25 -25 -25 -25 -25 -24 -24 -24 -24 -23 -21 -22 -21 -21 -21 -19 -19 -18 -18 -17 -17 -17 -17 -18 -18 -18 -18 -17 -16 -16 -16 -16 -16 -16 -16 -16 -15 -16 -16
-27 -26 -26 -25 -25 -25 -25 -25 -25 -25 -24 -24 -24 -23 -23 -22 -22 -22 -22 -22 -21 -20 -19 -19 -18 -18 -17 -17 -17 -17 -17 -17 -17 -17 -17 -16 -16 -16 -16 -16 -16 -16 -16 -16
-27 -27 -26 -25 -25 -25 -25 -25 -25 -25 -25 -24 -24 -23 -23 -23 -23 -23 -23 -22 -21 -21 -20 -19 -19 -19 -18 -18 -17 -17 -17 -17 -17 -17 -17 -17 -16 -16 -16 -16 -16 -16 -16 -16
-27 -27 -26 -26 -26 -26 -25 -25 -25 -25 -25 -24 -25 -24 -24 -24 -23 -23 -23 -22 -22 -21 -21 -20 -20 -19 -19 -18 -18 -17 -17 -16 -17 -17 -17 -17 -16 -16 -16 -16 -16 -16 -17 -17
-28 -28 -27 -26 -26 -26 -25 -25 -25 -25 -24 -25 -24 -24 -24 -24 -24 -24 -23 -23 -22 -21 -20 -21 -20 -20 -20 -19 -18 -18 -17 -17 -17 -17 -17 -17 -17 -17 -17 -17 -17 -17 -17 -17
-28 -28 -27 -27 -26 -25 -25 -25 -25 -25 -25 -24 -24 -24 -24 -23 -23 -23 -23 -23 -23 -22 -22 -22 -20 -20 -19 -19 -19 -19 -19 -18 -18 -18 -18 -18 -17 -17 -17 -17 -17 -17 -17 -18
-29 -28 -27 -27 -27 -26 -26 -25 -25 -25 -25 -24 -24 -24 -23 -23 -23 -23 -23 -23 -23 -23 -22 -22 -22 -21 -21 -20 -20 -20 -20 -19 -19 -18 -18 -18 -18 -18 -18 -18 -18 -18 -18 -19
-28 -28 -27 -27 -26 -26 -26 -25 -25 -25 -25 -24 -24 -24 -23 -23 -23 -23 -22 -22 -22 -22 -22 -22 -22 -22 -21 -21 -20 -21 -20 -20 -20 -19 -19 -19 -19 -19 -19 -20 -20 -20 -20 -20
-28 -28 -27 -27 -27 -26 -26 -26 -26 -26 -25 -25 -25 -25 -24 -24 -24 -23 -23 -23 -23 -23 -23 -23 -22 -22 -22 -21 -20 -20 -20 -20 -20 -19 -20 -20 -21 -21 -20 -21 -22 -22 -21 -21
-28 -28 -27 -27 -27 -27 -26 -26 -26 -26 -25 -25 -25 -25 -25 -24 -24 -24 -24 -23 -23 -23 -22 -22 -22 -22 -22 -22 -22 -21 -21 -21 -21 -21 -21 -21 -22 -22 -22 -22 -22 -21 -21 -21
-28 -28 -28 -28 -27 -27 -27 -27 -26 -26 -26 -26 -26 -25 -25 -25 -24 -24 -24 -23 -23 -23 -23 -23 -23 -23 -22 -22 -22 -22 -22 -22 -22 -22 -22 -23 -23 -23 -22 -22 -22 -21 -21 -21
-28 -28 -28 -28 -28 -28 -27 -27 -27 -26 -26 -26 -26 -26 -25 -25 -25 -24 -24 -23 -23 -23 -23 -23 -23 -23 -23 -23 -24 -24 -24 -23 -23 -23 -23 -23 -23 -23 -23 -23 -22 -22 -22 -22
-29 -28 -28 -28 -28 -28 -27 -27 -27 -27 -26 -26 -26 -26 -26 -25 -25 -25 -24 -24 -24 -24 -24 -23 -23 -23 -24 -24 -24 -24 -24 -24 -24 -24 -24 -24 -24 -23 -23 -23 -23 -23 -23 -23
-29 -29 -29 -28 -28 -28 -28 -28 -27 -27 -27 -26 -26 -26 -26 -26 -25 -25 -25 -25 -25 -25 -24 -24 -24 -24 -24 -24 -24 -24 -24 -24 -24 -24 -24 -24 -24 -24 -24 -24 -24 -24 -23 -23
-30 -29 -29 -29 -29 -29 -28 -28 -28 -27 -27 -27 -27 -27 -26 -26 -26 -26 -26 -25 -25 -25 -25 -25 -25 -25 -25 -25 -25 -25 -25 -25 -24 -24 -25 -25 -25 -25 -24 -24 -24 -24 -24 -24
-30 -30 -30 -29 -29 -29 -29 -28 -28 -28 -28 -27 -27 -27 -27 -27 -26 -26 -26 -26 -26 -26 -26 -25 -25 -25 -25 -26 -25 -25 -25 -25 -25 -25 -25 -25 -25 -25 -25 -25 -25 -25 -26 -25

GFSCGP_500_temp_339.txt.gz
Temp
-22 -22 -22 -21 -20 -19 -19 -19 -18 -17 -18 -18 -17 -15 -16 -16 -16 -17 -16 -16 -15 -15 -15 -15 -14 -14 -14 -14 -14 -13 -13 -13 -13 -13 -13 -13 -13 -13 -13 -12 -12 -12 -12 -12
-23 -23 -21 -21 -21 -21 -20 -20 -19 -18 -18 -18 -18 -17 -17 -17 -16 -16 -16 -16 -16 -16 -15 -15 -15 -15 -14 -14 -14 -14 -14 -14 -14 -13 -13 -13 -13 -13 -13 -12 -12 -13 -13 -13
-23 -21 -22 -23 -22 -23 -21 -21 -20 -19 -20 -19 -19 -18 -18 -17 -17 -17 -16 -16 -16 -15 -16 -16 -15 -15 -15 -15 -15 -15 -15 -15 -14 -14 -14 -14 -13 -13 -13 -13 -14 -13 -13 -13
-24 -22 -24 -24 -23 -22 -21 -20 -20 -20 -21 -21 -21 -19 -18 -18 -17 -17 -16 -16 -16 -16 -16 -16 -16 -16 -15 -15 -16 -15 -15 -15 -15 -14 -14 -14 -14 -14 -14 -14 -14 -13 -13 -14
-25 -25 -25 -25 -24 -23 -22 -21 -21 -22 -22 -22 -22 -22 -18 -18 -18 -17 -16 -16 -16 -16 -17 -17 -16 -16 -16 -17 -16 -16 -16 -16 -15 -15 -15 -15 -14 -15 -15 -15 -14 -14 -14 -14
-28 -28 -26 -26 -26 -25 -24 -24 -24 -24 -24 -25 -23 -23 -17 -19 -17 -17 -17 -17 -16 -16 -17 -17 -17 -17 -17 -16 -17 -17 -17 -16 -16 -16 -15 -15 -15 -15 -15 -15 -15 -15 -14 -14
-29 -28 -26 -27 -26 -26 -25 -25 -25 -25 -25 -24 -22 -24 -20 -19 -18 -17 -17 -17 -17 -17 -17 -19 -17 -17 -17 -16 -17 -17 -17 -17 -16 -16 -16 -16 -16 -16 -15 -15 -15 -15 -15 -14
-28 -28 -27 -26 -26 -25 -25 -25 -25 -25 -25 -24 -24 -24 -21 -19 -19 -19 -18 -18 -18 -18 -18 -18 -18 -18 -17 -17 -17 -17 -17 -16 -17 -16 -16 -16 -16 -16 -16 -15 -15 -15 -15 -15
-28 -28 -28 -26 -25 -25 -24 -25 -24 -25 -25 -25 -24 -24 -23 -22 -22 -21 -20 -19 -19 -19 -19 -18 -18 -19 -18 -17 -17 -17 -17 -16 -17 -16 -16 -16 -16 -16 -16 -16 -16 -15 -15 -15
-28 -27 -27 -27 -26 -25 -24 -24 -25 -25 -24 -24 -24 -24 -23 -22 -22 -22 -21 -21 -21 -20 -20 -19 -19 -18 -18 -19 -18 -18 -17 -16 -17 -17 -16 -16 -16 -16 -16 -16 -16 -16 -16 -16
-28 -27 -27 -27 -27 -26 -25 -24 -25 -25 -24 -24 -24 -24 -23 -23 -23 -23 -23 -23 -22 -22 -21 -20 -19 -19 -18 -19 -18 -19 -18 -18 -18 -17 -17 -17 -16 -16 -17 -16 -16 -16 -16 -16
-28 -27 -27 -26 -26 -26 -25 -26 -26 -26 -25 -24 -25 -24 -24 -23 -23 -23 -23 -23 -23 -23 -21 -21 -20 -19 -18 -18 -19 -18 -19 -19 -19 -18 -18 -18 -17 -17 -16 -16 -16 -16 -16 -16
-28 -28 -27 -26 -26 -26 -26 -26 -26 -25 -25 -25 -24 -23 -23 -24 -24 -24 -24 -23 -24 -23 -22 -22 -21 -20 -19 -19 -18 -18 -18 -18 -18 -18 -18 -17 -17 -17 -17 -17 -17 -16 -16 -16
-28 -28 -28 -27 -27 -26 -26 -26 -25 -25 -25 -24 -24 -24 -24 -24 -24 -24 -24 -24 -24 -23 -23 -22 -22 -21 -20 -19 -19 -19 -19 -18 -18 -18 -17 -17 -17 -17 -16 -17 -17 -17 -17 -17
-29 -28 -28 -27 -27 -26 -26 -26 -25 -25 -25 -26 -25 -25 -24 -24 -24 -24 -24 -24 -24 -24 -23 -23 -22 -22 -21 -21 -20 -19 -18 -18 -18 -18 -18 -17 -17 -17 -16 -16 -17 -17 -17 -17
-29 -28 -28 -27 -27 -26 -26 -26 -25 -25 -25 -25 -25 -25 -24 -24 -24 -24 -24 -24 -24 -23 -23 -22 -22 -22 -21 -21 -20 -20 -20 -19 -18 -18 -18 -18 -18 -18 -17 -17 -18 -18 -18 -18
-29 -28 -28 -27 -27 -26 -26 -26 -26 -25 -25 -25 -25 -25 -24 -24 -24 -24 -24 -24 -24 -23 -23 -23 -23 -23 -22 -21 -21 -21 -20 -20 -19 -19 -19 -19 -18 -18 -18 -18 -18 -18 -18 -17
-29 -28 -28 -27 -27 -27 -26 -26 -26 -26 -25 -25 -25 -25 -24 -24 -24 -24 -24 -23 -23 -23 -23 -23 -23 -23 -23 -23 -23 -22 -21 -21 -20 -20 -20 -19 -19 -19 -19 -19 -18 -18 -19 -19
-29 -28 -28 -27 -27 -27 -27 -26 -26 -26 -26 -26 -25 -25 -25 -25 -25 -24 -24 -24 -23 -23 -23 -23 -23 -23 -22 -23 -22 -22 -22 -22 -21 -21 -21 -20 -20 -20 -20 -20 -20 -20 -21 -21
-29 -28 -28 -28 -27 -27 -27 -27 -27 -26 -26 -26 -26 -25 -25 -25 -25 -24 -24 -24 -24 -23 -23 -23 -23 -23 -23 -23 -22 -22 -22 -22 -22 -22 -22 -21 -21 -21 -22 -22 -22 -22 -22 -22
-29 -28 -28 -27 -27 -27 -27 -27 -27 -27 -26 -26 -26 -26 -25 -25 -25 -25 -25 -24 -24 -24 -24 -24 -23 -23 -23 -23 -22 -22 -22 -22 -22 -22 -22 -22 -23 -22 -22 -23 -23 -23 -23 -23
-29 -29 -28 -28 -28 -28 -28 -27 -27 -27 -27 -27 -26 -26 -26 -26 -26 -25 -25 -25 -25 -24 -24 -24 -24 -24 -23 -23 -23 -23 -23 -23 -23 -23 -23 -23 -23 -23 -23 -23 -23 -23 -23 -23
-29 -29 -29 -28 -28 -28 -28 -28 -28 -27 -27 -27 -27 -27 -26 -26 -26 -26 -25 -25 -25 -25 -25 -24 -24 -24 -24 -24 -24 -24 -24 -24 -24 -24 -24 -24 -24 -24 -24 -24 -24 -24 -24 -24
-29 -29 -29 -29 -29 -29 -28 -28 -28 -28 -28 -27 -27 -27 -27 -26 -26 -26 -26 -26 -25 -25 -25 -25 -24 -24 -24 -24 -24 -24 -24 -24 -24 -24 -25 -24 -24 -24 -24 -25 -24 -24 -24 -24
-30 -30 -30 -30 -29 -29 -29 -29 -28 -28 -28 -28 -27 -27 -27 -27 -27 -26 -26 -26 -26 -26 -26 -25 -25 -25 -25 -25 -25 -25 -25 -25 -25 -25 -25 -25 -25 -25 -25 -25 -24 -24 -24 -25
-31 -30 -30 -30 -30 -29 -29 -29 -29 -29 -28 -28 -28 -28 -27 -27 -27 -27 -27 -27 -27 -26 -26 -26 -26 -26 -26 -26 -26 -26 -26 -26 -26 -26 -26 -26 -26 -25 -25 -25 -25 -25 -25 -25

GFSCGP_500_temp_342.txt.gz
Temp
-24 -23 -22 -22 -22 -22 -21 -21 -20 -19 -19 -19 -18 -16 -17 -17 -17 -16 -16 -16 -16 -16 -16 -16 -16 -16 -16 -15 -14 -14 -15 -14 -14 -13 -13 -13 -13 -13 -13 -13 -13 -13 -13 -13
-24 -24 -21 -23 -23 -23 -22 -22 -21 -20 -20 -19 -19 -17 -18 -18 -17 -17 -16 -17 -16 -16 -16 -16 -16 -16 -15 -16 -16 -15 -15 -14 -14 -14 -14 -13 -14 -13 -13 -13 -13 -13 -13 -13
-25 -23 -25 -24 -24 -24 -23 -22 -21 -21 -20 -20 -20 -19 -19 -18 -18 -17 -16 -16 -17 -16 -16 -16 -16 -16 -16 -16 -16 -16 -16 -15 -15 -15 -15 -14 -14 -14 -13 -13 -13 -14 -13 -13
-28 -26 -25 -26 -25 -24 -23 -22 -21 -21 -21 -21 -21 -20 -20 -19 -19 -19 -17 -16 -16 -16 -17 -17 -17 -16 -16 -16 -16 -17 -17 -16 -16 -16 -15 -15 -15 -14 -15 -14 -14 -14 -13 -13
-29 -29 -29 -28 -25 -26 -24 -23 -22 -22 -22 -21 -22 -22 -19 -19 -19 -19 -17 -17 -16 -16 -17 -17 -17 -17 -17 -17 -17 -17 -17 -17 -17 -16 -16 -15 -15 -15 -15 -15 -15 -14 -14 -14
-30 -30 -29 -29 -27 -27 -24 -25 -24 -24 -24 -25 -22 -24 -20 -20 -19 -18 -18 -18 -17 -17 -17 -17 -18 -17 -17 -17 -17 -17 -17 -17 -17 -17 -16 -16 -16 -16 -16 -16 -15 -15 -15 -15
-30 -29 -29 -28 -28 -27 -26 -27 -26 -26 -26 -25 -22 -24 -21 -20 -20 -19 -18 -18 -18 -18 -17 -18 -18 -18 -18 -17 -17 -17 -17 -17 -17 -17 -17 -17 -16 -16 -16 -16 -15 -15 -15 -15
-29 -28 -28 -28 -27 -27 -26 -27 -26 -26 -25 -25 -25 -25 -22 -20 -21 -20 -20 -19 -19 -18 -18 -18 -18 -18 -18 -19 -18 -17 -17 -17 -17 -17 -17 -17 -17 -17 -16 -16 -16 -16 -16 -16
-29 -28 -28 -27 -27 -28 -27 -27 -27 -26 -25 -25 -25 -25 -24 -21 -21 -21 -21 -20 -19 -19 -19 -19 -19 -19 -18 -18 -19 -19 -17 -17 -17 -17 -17 -17 -17 -17 -17 -17 -16 -16 -16 -16
-29 -28 -28 -27 -28 -28 -28 -27 -27 -27 -26 -25 -25 -25 -24 -23 -23 -23 -23 -22 -22 -22 -21 -20 -20 -19 -19 -19 -19 -18 -18 -18 -17 -17 -17 -17 -17 -17 -17 -16 -16 -16 -16 -16
-29 -29 -28 -27 -27 -27 -27 -27 -27 -26 -26 -25 -25 -24 -24 -24 -23 -24 -24 -24 -23 -23 -22 -21 -21 -21 -20 -19 -19 -19 -19 -18 -18 -17 -17 -17 -17 -17 -17 -16 -17 -17 -16 -16
-29 -28 -28 -27 -27 -27 -27 -26 -26 -26 -26 -25 -25 -25 -24 -24 -23 -23 -24 -24 -24 -24 -23 -23 -22 -21 -21 -20 -20 -19 -20 -19 -18 -18 -17 -17 -17 -17 -17 -17 -17 -17 -16 -16
-29 -28 -28 -27 -27 -26 -26 -26 -26 -26 -26 -25 -25 -24 -24 -24 -25 -25 -25 -25 -24 -24 -24 -23 -23 -22 -22 -21 -20 -20 -19 -19 -19 -19 -18 -18 -18 -18 -17 -17 -17 -17 -17 -17
-29 -29 -28 -28 -27 -27 -26 -26 -26 -26 -26 -25 -25 -25 -25 -25 -25 -25 -24 -24 -24 -24 -24 -23 -23 -23 -22 -21 -21 -20 -20 -20 -20 -19 -19 -19 -18 -19 -18 -18 -18 -18 -18 -17
-30 -29 -28 -28 -27 -27 -26 -26 -26 -26 -25 -25 -25 -24 -24 -24 -24 -24 -24 -24 -24 -24 -24 -24 -24 -23 -23 -22 -21 -21 -21 -20 -20 -20 -19 -19 -19 -19 -19 -19 -18 -18 -18 -18
-30 -29 -28 -28 -27 -27 -26 -26 -26 -26 -26 -25 -25 -25 -25 -25 -25 -25 -25 -24 -24 -24 -24 -24 -24 -24 -23 -23 -23 -22 -21 -20 -20 -20 -20 -19 -19 -19 -19 -19 -19 -18 -18 -18
-29 -29 -28 -28 -27 -27 -26 -26 -26 -26 -26 -25 -26 -26 -26 -25 -25 -25 -25 -25 -24 -24 -24 -24 -24 -24 -24 -23 -23 -23 -23 -22 -21 -21 -20 -20 -20 -20 -19 -19 -19 -19 -19 -19
-29 -29 -29 -28 -27 -27 -27 -26 -26 -26 -26 -26 -26 -26 -26 -25 -25 -25 -25 -25 -24 -24 -24 -24 -24 -23 -24 -23 -23 -23 -22 -22 -21 -21 -21 -21 -20 -20 -20 -20 -19 -19 -19 -19
-29 -29 -29 -28 -28 -27 -27 -27 -27 -26 -26 -26 -26 -26 -26 -25 -25 -25 -25 -25 -24 -24 -24 -24 -24 -24 -24 -23 -23 -23 -23 -23 -22 -21 -21 -21 -21 -20 -20 -20 -20 -19 -20 -20
-30 -29 -29 -28 -28 -28 -28 -27 -27 -27 -27 -27 -26 -26 -26 -26 -25 -25 -25 -25 -25 -25 -24 -24 -23 -23 -23 -23 -23 -23 -23 -23 -23 -22 -22 -22 -21 -21 -21 -20 -21 -21 -21 -21
-29 -29 -29 -28 -28 -28 -27 -27 -27 -27 -27 -27 -27 -26 -26 -26 -26 -26 -25 -25 -25 -25 -25 -24 -24 -24 -23 -23 -23 -23 -23 -23 -23 -22 -22 -22 -22 -22 -22 -22 -22 -22 -22 -22
-29 -29 -29 -29 -29 -28 -28 -27 -28 -27 -27 -27 -27 -27 -27 -26 -26 -26 -26 -26 -26 -25 -25 -25 -25 -24 -25 -24 -24 -23 -24 -23 -23 -23 -23 -23 -23 -22 -23 -23 -23 -23 -23 -23
-30 -29 -29 -29 -29 -29 -29 -29 -28 -28 -28 -28 -28 -27 -27 -27 -27 -26 -26 -26 -26 -26 -26 -25 -25 -25 -24 -24 -24 -24 -24 -24 -24 -24 -24 -24 -24 -24 -24 -24 -24 -24 -24 -24
-30 -30 -30 -30 -30 -29 -29 -29 -29 -28 -28 -28 -28 -28 -28 -27 -27 -27 -27 -26 -26 -26 -26 -25 -25 -25 -25 -25 -25 -25 -25 -24 -25 -25 -25 -25 -25 -25 -25 -25 -25 -24 -25 -24
-31 -30 -30 -30 -30 -30 -29 -29 -29 -29 -29 -29 -28 -28 -28 -28 -28 -27 -27 -27 -27 -27 -26 -26 -26 -26 -25 -25 -25 -25 -25 -25 -25 -25 -25 -25 -25 -25 -25 -25 -25 -25 -25 -25
-31 -31 -31 -31 -30 -30 -30 -30 -29 -29 -29 -29 -29 -29 -28 -28 -28 -28 -28 -27 -27 -27 -27 -27 -27 -26 -26 -26 -26 -26 -26 -25 -25 -25 -26 -25 -26 -26 -26 -26 -26 -26 -26 -26

GFSCGP_500_temp_345.txt.gz
Temp
-26 -25 -24 -24 -25 -23 -23 -23 -22 -21 -21 -20 -19 -18 -17 -18 -18 -17 -17 -16 -17 -16 -17 -17 -16 -17 -16 -16 -16 -16 -16 -15 -15 -14 -14 -14 -13 -13 -13 -13 -13 -13 -13 -13
-27 -26 -26 -26 -25 -25 -24 -23 -22 -21 -21 -21 -20 -19 -19 -19 -18 -18 -17 -17 -16 -16 -16 -17 -17 -16 -16 -16 -16 -16 -16 -16 -16 -15 -15 -14 -15 -14 -14 -14 -13 -13 -13 -12
-31 -27 -27 -27 -27 -26 -25 -24 -22 -22 -22 -21 -21 -20 -20 -20 -20 -19 -18 -17 -17 -16 -17 -17 -17 -17 -16 -16 -16 -16 -16 -16 -16 -16 -16 -15 -15 -14 -14 -13 -14 -14 -13 -13
-31 -29 -29 -29 -27 -28 -26 -25 -25 -24 -23 -22 -22 -21 -20 -20 -19 -20 -19 -18 -17 -17 -17 -17 -17 -17 -17 -17 -17 -17 -17 -17 -17 -17 -16 -16 -15 -15 -15 -15 -15 -15 -14 -14
-31 -30 -31 -30 -28 -30 -26 -26 -27 -25 -24 -25 -23 -23 -20 -20 -20 -20 -19 -19 -18 -17 -17 -17 -17 -18 -17 -17 -17 -17 -17 -17 -17 -17 -17 -16 -16 -16 -16 -15 -15 -15 -15 -14
-31 -32 -30 -30 -29 -30 -28 -28 -26 -26 -26 -27 -24 -25 -22 -21 -20 -19 -19 -19 -19 -18 -18 -18 -18 -18 -18 -19 -18 -17 -16 -17 -17 -17 -17 -17 -16 -16 -16 -16 -16 -15 -15 -15
-30 -30 -30 -30 -29 -29 -29 -29 -27 -27 -27 -24 -23 -25 -23 -20 -20 -20 -19 -19 -19 -19 -19 -18 -18 -18 -18 -19 -19 -19 -17 -17 -17 -17 -17 -17 -17 -17 -17 -17 -17 -16 -16 -15
-30 -29 -30 -29 -29 -28 -28 -29 -28 -26 -26 -25 -24 -26 -21 -20 -21 -21 -21 -20 -20 -20 -19 -19 -18 -18 -19 -19 -18 -18 -18 -18 -17 -17 -17 -17 -17 -17 -17 -17 -17 -17 -16 -16
-30 -29 -29 -28 -28 -28 -28 -28 -28 -29 -27 -27 -25 -24 -23 -22 -22 -22 -21 -21 -21 -21 -20 -20 -20 -19 -19 -19 -18 -18 -18 -18 -18 -17 -17 -17 -17 -17 -17 -17 -17 -17 -17 -17
-30 -29 -29 -28 -27 -28 -28 -30 -29 -29 -28 -27 -26 -26 -25 -24 -24 -24 -24 -23 -23 -22 -22 -21 -20 -20 -19 -19 -19 -19 -18 -18 -18 -18 -18 -17 -17 -17 -17 -17 -17 -17 -17 -17
-30 -30 -29 -28 -28 -28 -28 -29 -29 -29 -28 -27 -26 -25 -25 -24 -25 -24 -24 -24 -24 -23 -22 -21 -21 -20 -20 -19 -19 -19 -19 -19 -18 -18 -18 -18 -17 -17 -17 -17 -17 -17 -16 -16
-30 -29 -29 -28 -28 -28 -27 -27 -28 -28 -27 -27 -27 -26 -26 -25 -24 -24 -24 -24 -24 -24 -23 -22 -21 -21 -20 -20 -20 -20 -20 -19 -19 -18 -18 -18 -18 -18 -17 -17 -17 -17 -17 -17
-30 -29 -29 -28 -27 -27 -27 -27 -27 -27 -27 -27 -26 -26 -26 -25 -25 -24 -24 -24 -24 -24 -24 -24 -24 -23 -23 -22 -21 -21 -21 -20 -20 -19 -19 -18 -18 -18 -18 -18 -17 -17 -17 -17
-30 -30 -29 -28 -28 -27 -27 -27 -27 -27 -27 -26 -26 -26 -26 -25 -25 -25 -25 -25 -25 -24 -25 -24 -24 -24 -23 -23 -23 -22 -22 -21 -20 -20 -20 -20 -19 -19 -18 -19 -18 -17 -17 -17
-30 -29 -29 -29 -28 -28 -27 -27 -27 -27 -27 -26 -26 -26 -25 -25 -25 -25 -25 -25 -25 -25 -24 -24 -24 -24 -24 -23 -23 -23 -23 -22 -21 -21 -21 -20 -20 -20 -20 -19 -19 -18 -18 -18
-30 -29 -29 -28 -28 -28 -27 -27 -27 -26 -27 -27 -26 -26 -25 -25 -26 -25 -25 -24 -24 -25 -24 -24 -23 -24 -24 -23 -23 -23 -23 -22 -22 -21 -21 -21 -21 -20 -20 -20 -20 -19 -18 -18
-30 -29 -29 -29 -28 -28 -27 -27 -27 -27 -26 -26 -26 -26 -26 -26 -26 -26 -25 -25 -25 -26 -25 -25 -24 -24 -24 -24 -24 -24 -24 -24 -23 -22 -22 -22 -21 -21 -21 -20 -20 -20 -19 -19
-30 -29 -29 -29 -28 -28 -28 -27 -27 -27 -26 -26 -26 -26 -26 -26 -26 -25 -25 -25 -25 -25 -25 -25 -25 -25 -24 -24 -24 -24 -24 -24 -23 -22 -22 -22 -21 -21 -21 -21 -20 -20 -20 -20
-30 -29 -29 -29 -29 -28 -28 -28 -27 -27 -27 -27 -27 -26 -26 -26 -26 -26 -26 -26 -25 -25 -25 -25 -25 -25 -25 -25 -24 -24 -24 -23 -23 -23 -23 -23 -22 -22 -22 -22 -21 -21 -21 -21
-30 -30 -30 -29 -29 -28 -28 -28 -28 -27 -27 -27 -27 -27 -27 -26 -26 -26 -26 -26 -25 -25 -25 -25 -25 -25 -25 -24 -24 -24 -23 -23 -24 -23 -23 -23 -22 -22 -22 -22 -22 -22 -21 -21
-30 -30 -30 -29 -29 -28 -28 -28 -28 -28 -28 -27 -27 -27 -27 -26 -26 -26 -26 -26 -26 -26 -25 -25 -25 -25 -25 -24 -24 -24 -24 -24 -24 -23 -23 -23 -22 -22 -22 -22 -22 -22 -21 -21
-30 -30 -29 -29 -29 -29 -28 -28 -28 -28 -28 -28 -28 -27 -27 -27 -27 -27 -26 -26 -26 -26 -26 -26 -25 -25 -25 -25 -24 -24 -24 -24 -24 -24 -23 -23 -23 -22 -22 -22 -22 -23 -22 -22
-30 -30 -30 -30 -30 -29 -29 -29 -29 -29 -29 -28 -28 -28 -28 -27 -27 -27 -27 -27 -27 -26 -26 -26 -26 -26 -25 -25 -25 -25 -25 -24 -24 -24 -24 -24 -23 -23 -23 -23 -23 -24 -24 -23
-30 -30 -30 -30 -30 -30 -30 -30 -30 -29 -29 -29 -29 -29 -28 -28 -28 -28 -27 -27 -27 -27 -26 -26 -26 -26 -26 -25 -25 -25 -25 -25 -25 -25 -24 -24 -24 -24 -24 -24 -24 -24 -24 -24
-31 -31 -30 -30 -30 -30 -30 -30 -30 -30 -30 -29 -29 -29 -29 -29 -28 -28 -28 -28 -27 -27 -27 -27 -26 -26 -26 -26 -26 -25 -25 -25 -25 -25 -25 -25 -25 -25 -25 -25 -25 -25 -25 -25
-32 -31 -31 -31 -31 -31 -30 -30 -30 -30 -30 -30 -29 -29 -29 -29 -29 -29 -29 -29 -28 -28 -27 -27 -27 -27 -27 -27 -26 -26 -26 -26 -26 -26 -26 -26 -26 -26 -25 -25 -25 -25 -25 -25